Time,TemperatureF,DewpointF,PressureIn,WindDirection,WindDirectionDegrees,WindSpeedMPH,WindSpeedGustMPH,Humidity,HourlyPrecipIn,Conditions,Clouds,dailyrainin,SoftwareType,DateUTC
2013-10-04 00:32:00,70.2,58.6,29.81,North,-999,-999.0,-999.0,67,-99.99,,,-99.99,meteohub,2013-10-04 04:32:00,
2013-10-04 00:34:00,70.0,59.0,29.81,North,-999,-999.0,-999.0,68,-99.99,,,-99.99,meteohub,2013-10-04 04:34:00,
2013-10-04 00:35:00,70.0,59.0,29.81,North,-999,-999.0,-999.0,68,-99.99,,,-99.99,meteohub,2013-10-04 04:35:00,
2013-10-04 00:36:00,70.0,59.0,29.81,North,-999,-999.0,-999.0,68,-99.99,,,-99.99,meteohub,2013-10-04 04:36:00,
2013-10-04 00:39:00,70.0,59.0,29.81,North,-999,-999.0,-999.0,68,-99.99,,,-99.99,meteohub,2013-10-04 04:39:00,
2013-10-04 00:43:00,70.0,59.0,29.81,North,-999,-999.0,-999.0,68,-99.99,,,-99.99,meteohub,2013-10-04 04:43:00,
2013-10-04 00:45:00,70.0,59.0,29.81,North,-999,-999.0,-999.0,68,-99.99,,,-99.99,meteohub,2013-10-04 04:45:00,
2013-10-04 00:46:00,70.0,59.0,29.81,North,-999,-999.0,-999.0,68,-99.99,,,-99.99,meteohub,2013-10-04 04:46:00,
2013-10-04 00:51:00,70.0,59.4,29.81,North,-999,-999.0,-999.0,69,-99.99,,,-99.99,meteohub,2013-10-04 04:51:00,
2013-10-04 00:53:00,70.0,59.4,29.81,North,-999,-999.0,-999.0,69,-99.99,,,-99.99,meteohub,2013-10-04 04:53:00,
2013-10-04 00:55:00,69.8,59.2,29.81,North,-999,-999.0,-999.0,69,-99.99,,,-99.99,meteohub,2013-10-04 04:55:00,
2013-10-04 00:56:00,69.8,59.2,29.81,North,-999,-999.0,-999.0,69,-99.99,,,-99.99,meteohub,2013-10-04 04:56:00,
2013-10-04 00:59:00,69.8,58.8,29.81,North,-999,-999.0,-999.0,68,-99.99,,,-99.99,meteohub,2013-10-04 04:59:00,
2013-10-04 01:02:00,69.8,59.2,29.81,North,-999,-999.0,-999.0,69,-99.99,,,-99.99,meteohub,2013-10-04 05:02:00,
2013-10-04 01:05:00,69.8,58.8,29.81,North,-999,-999.0,-999.0,68,-99.99,,,-99.99,meteohub,2013-10-04 05:05:00,
2013-10-04 01:09:00,69.8,59.2,29.81,North,-999,-999.0,-999.0,69,-99.99,,,-99.99,meteohub,2013-10-04 05:09:00,
2013-10-04 01:12:00,69.6,59.0,29.81,North,-999,-999.0,-999.0,69,-99.99,,,-99.99,meteohub,2013-10-04 05:12:00,
2013-10-04 01:16:00,69.6,59.4,29.81,North,-999,-999.0,-999.0,70,-99.99,,,-99.99,meteohub,2013-10-04 05:16:00,
2013-10-04 01:17:00,69.6,59.0,29.81,North,-999,-999.0,-999.0,69,-99.99,,,-99.99,meteohub,2013-10-04 05:17:00,
2013-10-04 01:19:00,69.4,58.8,29.81,North,-999,-999.0,-999.0,69,-99.99,,,-99.99,meteohub,2013-10-04 05:19:00,
2013-10-04 01:25:00,69.4,59.2,29.81,North,-999,-999.0,-999.0,70,-99.99,,,-99.99,meteohub,2013-10-04 05:25:00,
2013-10-04 01:29:00,69.4,59.2,29.81,North,-999,-999.0,-999.0,70,-99.99,,,-99.99,meteohub,2013-10-04 05:29:00,
2013-10-04 01:34:00,69.3,59.0,29.81,North,-999,-999.0,-999.0,70,-99.99,,,-99.99,meteohub,2013-10-04 05:34:00,
2013-10-04 01:39:00,69.3,59.0,29.81,North,-999,-999.0,-999.0,70,-99.99,,,-99.99,meteohub,2013-10-04 05:39:00,
2013-10-04 01:44:00,69.1,58.8,29.81,North,-999,-999.0,-999.0,70,-99.99,,,-99.99,meteohub,2013-10-04 05:44:00,
2013-10-04 01:49:00,68.9,59.2,29.81,North,-999,-999.0,-999.0,71,-99.99,,,-99.99,meteohub,2013-10-04 05:49:00,
2013-10-04 01:55:00,68.7,59.0,29.81,North,-999,-999.0,-999.0,71,-99.99,,,-99.99,meteohub,2013-10-04 05:55:00,
2013-10-04 02:00:00,68.5,58.8,29.81,North,-999,-999.0,-999.0,71,-99.99,,,-99.99,meteohub,2013-10-04 06:00:00,
2013-10-04 02:05:00,68.4,58.6,29.81,North,-999,-999.0,-999.0,71,-99.99,,,-99.99,meteohub,2013-10-04 06:05:00,
2013-10-04 02:10:00,68.2,58.8,29.81,North,-999,-999.0,-999.0,72,-99.99,,,-99.99,meteohub,2013-10-04 06:10:00,
2013-10-04 02:15:00,68.2,58.8,29.81,North,-999,-999.0,-999.0,72,-99.99,,,-99.99,meteohub,2013-10-04 06:15:00,
2013-10-04 02:20:00,68.0,58.6,29.81,North,-999,-999.0,-999.0,72,-99.99,,,-99.99,meteohub,2013-10-04 06:20:00,
2013-10-04 02:25:00,67.8,58.8,29.81,North,-999,-999.0,-999.0,73,-99.99,,,-99.99,meteohub,2013-10-04 06:25:00,
2013-10-04 02:30:00,67.6,59.0,29.81,North,-999,-999.0,-999.0,74,-99.99,,,-99.99,meteohub,2013-10-04 06:30:00,
2013-10-04 02:36:00,67.5,59.2,29.81,North,-999,-999.0,-999.0,75,-99.99,,,-99.99,meteohub,2013-10-04 06:36:00,
2013-10-04 02:41:00,67.5,59.2,29.81,North,-999,-999.0,-999.0,75,-99.99,,,-99.99,meteohub,2013-10-04 06:41:00,
2013-10-04 02:46:00,67.5,59.2,29.81,North,-999,-999.0,-999.0,75,-99.99,,,-99.99,meteohub,2013-10-04 06:46:00,
2013-10-04 02:51:00,67.5,59.7,29.81,North,-999,-999.0,-999.0,76,-99.99,,,-99.99,meteohub,2013-10-04 06:51:00,
2013-10-04 02:56:00,67.3,59.5,29.81,North,-999,-999.0,-999.0,76,-99.99,,,-99.99,meteohub,2013-10-04 06:56:00,
2013-10-04 03:01:00,67.3,59.5,29.81,North,-999,-999.0,-999.0,76,-99.99,,,-99.99,meteohub,2013-10-04 07:01:00,
2013-10-04 03:06:00,67.3,59.5,29.81,North,-999,-999.0,-999.0,76,-99.99,,,-99.99,meteohub,2013-10-04 07:06:00,
2013-10-04 03:11:00,67.1,59.7,29.81,North,-999,-999.0,-999.0,77,-99.99,,,-99.99,meteohub,2013-10-04 07:11:00,
2013-10-04 03:17:00,67.1,59.7,29.81,North,-999,-999.0,-999.0,77,-99.99,,,-99.99,meteohub,2013-10-04 07:17:00,
2013-10-04 03:22:00,66.9,59.5,29.81,North,-999,-999.0,-999.0,77,-99.99,,,-99.99,meteohub,2013-10-04 07:22:00,
2013-10-04 03:27:00,66.9,59.9,29.81,North,-999,-999.0,-999.0,78,-99.99,,,-99.99,meteohub,2013-10-04 07:27:00,
2013-10-04 03:32:00,66.7,59.7,29.81,North,-999,-999.0,-999.0,78,-99.99,,,-99.99,meteohub,2013-10-04 07:32:00,
2013-10-04 03:37:00,66.7,59.7,29.81,North,-999,-999.0,-999.0,78,-99.99,,,-99.99,meteohub,2013-10-04 07:37:00,
2013-10-04 03:42:00,66.7,59.7,29.81,North,-999,-999.0,-999.0,78,-99.99,,,-99.99,meteohub,2013-10-04 07:42:00,
2013-10-04 03:47:00,66.6,59.5,29.81,North,-999,-999.0,-999.0,78,-99.99,,,-99.99,meteohub,2013-10-04 07:47:00,
2013-10-04 03:52:00,66.6,59.5,29.81,North,-999,-999.0,-999.0,78,-99.99,,,-99.99,meteohub,2013-10-04 07:52:00,
2013-10-04 03:57:00,66.4,59.7,29.81,North,-999,-999.0,-999.0,79,-99.99,,,-99.99,meteohub,2013-10-04 07:57:00,
2013-10-04 04:02:00,66.4,59.7,29.81,North,-999,-999.0,-999.0,79,-99.99,,,-99.99,meteohub,2013-10-04 08:02:00,
2013-10-04 04:07:00,66.4,59.7,29.81,North,-999,-999.0,-999.0,79,-99.99,,,-99.99,meteohub,2013-10-04 08:07:00,
2013-10-04 04:12:00,66.2,59.5,29.81,North,-999,-999.0,-999.0,79,-99.99,,,-99.99,meteohub,2013-10-04 08:12:00,
2013-10-04 04:17:00,66.2,59.5,29.81,North,-999,-999.0,-999.0,79,-99.99,,,-99.99,meteohub,2013-10-04 08:17:00,
2013-10-04 04:22:00,66.0,59.7,29.81,North,-999,-999.0,-999.0,80,-99.99,,,-99.99,meteohub,2013-10-04 08:22:00,
2013-10-04 04:27:00,66.0,59.7,29.81,North,-999,-999.0,-999.0,80,-99.99,,,-99.99,meteohub,2013-10-04 08:27:00,
2013-10-04 04:32:00,66.0,59.7,29.81,North,-999,-999.0,-999.0,80,-99.99,,,-99.99,meteohub,2013-10-04 08:32:00,
2013-10-04 04:37:00,65.8,59.5,29.81,North,-999,-999.0,-999.0,80,-99.99,,,-99.99,meteohub,2013-10-04 08:37:00,
2013-10-04 04:42:00,65.8,59.9,29.81,North,-999,-999.0,-999.0,81,-99.99,,,-99.99,meteohub,2013-10-04 08:42:00,
2013-10-04 04:47:00,65.8,59.9,29.81,North,-999,-999.0,-999.0,81,-99.99,,,-99.99,meteohub,2013-10-04 08:47:00,
2013-10-04 04:52:00,65.8,59.9,29.81,North,-999,-999.0,-999.0,81,-99.99,,,-99.99,meteohub,2013-10-04 08:52:00,
2013-10-04 04:57:00,65.7,59.7,29.81,North,-999,-999.0,-999.0,81,-99.99,,,-99.99,meteohub,2013-10-04 08:57:00,
2013-10-04 05:02:00,65.7,59.7,29.81,North,-999,-999.0,-999.0,81,-99.99,,,-99.99,meteohub,2013-10-04 09:02:00,
2013-10-04 05:07:00,65.7,59.7,29.81,North,-999,-999.0,-999.0,81,-99.99,,,-99.99,meteohub,2013-10-04 09:07:00,
2013-10-04 05:12:00,65.7,60.1,29.81,North,-999,-999.0,-999.0,82,-99.99,,,-99.99,meteohub,2013-10-04 09:12:00,
2013-10-04 05:17:00,65.7,60.1,29.81,North,-999,-999.0,-999.0,82,-99.99,,,-99.99,meteohub,2013-10-04 09:17:00,
2013-10-04 05:22:00,65.7,60.1,29.81,North,-999,-999.0,-999.0,82,-99.99,,,-99.99,meteohub,2013-10-04 09:22:00,
2013-10-04 05:27:00,65.5,59.9,29.81,North,-999,-999.0,-999.0,82,-99.99,,,-99.99,meteohub,2013-10-04 09:27:00,
2013-10-04 05:32:00,65.7,60.1,29.81,North,-999,-999.0,-999.0,82,-99.99,,,-99.99,meteohub,2013-10-04 09:32:00,
2013-10-04 05:37:00,65.5,59.9,29.81,North,-999,-999.0,-999.0,82,-99.99,,,-99.99,meteohub,2013-10-04 09:37:00,
2013-10-04 05:42:00,65.5,60.3,29.81,North,-999,-999.0,-999.0,83,-99.99,,,-99.99,meteohub,2013-10-04 09:42:00,
2013-10-04 05:47:00,65.3,60.1,29.81,North,-999,-999.0,-999.0,83,-99.99,,,-99.99,meteohub,2013-10-04 09:47:00,
2013-10-04 05:52:00,65.1,59.9,29.81,North,-999,-999.0,-999.0,83,-99.99,,,-99.99,meteohub,2013-10-04 09:52:00,
2013-10-04 05:57:00,65.1,59.9,29.81,North,-999,-999.0,-999.0,83,-99.99,,,-99.99,meteohub,2013-10-04 09:57:00,
2013-10-04 06:02:00,64.9,59.7,29.81,North,-999,-999.0,-999.0,83,-99.99,,,-99.99,meteohub,2013-10-04 10:02:00,
2013-10-04 06:07:00,64.8,59.5,29.81,North,-999,-999.0,-999.0,83,-99.99,,,-99.99,meteohub,2013-10-04 10:07:00,
2013-10-04 06:12:00,64.8,59.5,29.81,North,-999,-999.0,-999.0,83,-99.99,,,-99.99,meteohub,2013-10-04 10:12:00,
2013-10-04 06:17:00,64.6,59.7,29.81,North,-999,-999.0,-999.0,84,-99.99,,,-99.99,meteohub,2013-10-04 10:17:00,
2013-10-04 06:22:00,64.6,59.7,29.81,North,-999,-999.0,-999.0,84,-99.99,,,-99.99,meteohub,2013-10-04 10:22:00,
2013-10-04 06:27:00,64.6,59.7,29.81,North,-999,-999.0,-999.0,84,-99.99,,,-99.99,meteohub,2013-10-04 10:27:00,
2013-10-04 06:32:00,64.6,59.7,29.81,North,-999,-999.0,-999.0,84,-99.99,,,-99.99,meteohub,2013-10-04 10:32:00,
2013-10-04 06:37:00,64.4,59.5,29.81,North,-999,-999.0,-999.0,84,-99.99,,,-99.99,meteohub,2013-10-04 10:37:00,
2013-10-04 06:42:00,64.4,59.7,29.81,North,-999,-999.0,-999.0,85,-99.99,,,-99.99,meteohub,2013-10-04 10:42:00,
2013-10-04 06:47:00,64.2,59.5,29.81,North,-999,-999.0,-999.0,85,-99.99,,,-99.99,meteohub,2013-10-04 10:47:00,
2013-10-04 06:52:00,64.2,59.9,29.81,North,-999,-999.0,-999.0,86,-99.99,,,-99.99,meteohub,2013-10-04 10:52:00,
2013-10-04 06:57:00,64.0,59.4,29.81,North,-999,-999.0,-999.0,85,-99.99,,,-99.99,meteohub,2013-10-04 10:57:00,
2013-10-04 07:02:00,63.9,59.2,29.81,North,-999,-999.0,-999.0,85,-99.99,,,-99.99,meteohub,2013-10-04 11:02:00,
2013-10-04 07:07:00,63.9,59.2,29.81,North,-999,-999.0,-999.0,85,-99.99,,,-99.99,meteohub,2013-10-04 11:07:00,
2013-10-04 07:12:00,63.9,59.5,29.81,North,-999,-999.0,-999.0,86,-99.99,,,-99.99,meteohub,2013-10-04 11:12:00,
2013-10-04 07:17:00,63.7,59.4,29.81,North,-999,-999.0,-999.0,86,-99.99,,,-99.99,meteohub,2013-10-04 11:17:00,
2013-10-04 07:22:00,63.5,59.2,29.81,North,-999,-999.0,-999.0,86,-99.99,,,-99.99,meteohub,2013-10-04 11:22:00,
2013-10-04 07:27:00,63.5,59.2,29.81,North,-999,-999.0,-999.0,86,-99.99,,,-99.99,meteohub,2013-10-04 11:27:00,
2013-10-04 07:32:00,63.5,59.5,29.81,North,-999,-999.0,-999.0,87,-99.99,,,-99.99,meteohub,2013-10-04 11:32:00,
2013-10-04 07:37:00,63.5,59.5,29.81,North,-999,-999.0,-999.0,87,-99.99,,,-99.99,meteohub,2013-10-04 11:37:00,
2013-10-04 07:42:00,63.3,59.0,29.81,North,-999,-999.0,-999.0,86,-99.99,,,-99.99,meteohub,2013-10-04 11:42:00,
2013-10-04 07:47:00,63.3,59.4,29.81,North,-999,-999.0,-999.0,87,-99.99,,,-99.99,meteohub,2013-10-04 11:47:00,
2013-10-04 07:52:00,63.3,59.4,29.81,North,-999,-999.0,-999.0,87,-99.99,,,-99.99,meteohub,2013-10-04 11:52:00,
2013-10-04 07:57:00,63.3,59.4,29.81,North,-999,-999.0,-999.0,87,-99.99,,,-99.99,meteohub,2013-10-04 11:57:00,
2013-10-04 08:02:00,63.5,59.9,29.81,North,-999,-999.0,-999.0,88,-99.99,,,-99.99,meteohub,2013-10-04 12:02:00,
2013-10-04 08:07:00,63.5,59.9,29.84,North,-999,-999.0,-999.0,88,-99.99,,,-99.99,meteohub,2013-10-04 12:07:00,
2013-10-04 08:12:00,63.7,60.1,29.84,North,-999,-999.0,-999.0,88,-99.99,,,-99.99,meteohub,2013-10-04 12:12:00,
2013-10-04 08:17:00,63.9,60.3,29.84,North,-999,-999.0,-999.0,88,-99.99,,,-99.99,meteohub,2013-10-04 12:17:00,
2013-10-04 08:22:00,64.0,60.8,29.84,North,-999,-999.0,-999.0,89,-99.99,,,-99.99,meteohub,2013-10-04 12:22:00,
2013-10-04 08:27:00,64.4,60.8,29.84,North,-999,-999.0,-999.0,88,-99.99,,,-99.99,meteohub,2013-10-04 12:27:00,
2013-10-04 08:32:00,64.6,61.3,29.84,North,-999,-999.0,-999.0,89,-99.99,,,-99.99,meteohub,2013-10-04 12:32:00,
2013-10-04 08:37:00,64.9,61.7,29.84,North,-999,-999.0,-999.0,89,-99.99,,,-99.99,meteohub,2013-10-04 12:37:00,
2013-10-04 08:42:00,65.3,62.1,29.84,North,-999,-999.0,-999.0,89,-99.99,,,-99.99,meteohub,2013-10-04 12:42:00,
2013-10-04 08:47:00,65.5,62.2,29.84,North,-999,-999.0,-999.0,89,-99.99,,,-99.99,meteohub,2013-10-04 12:47:00,
2013-10-04 08:52:00,66.0,62.6,29.84,North,-999,-999.0,-999.0,89,-99.99,,,-99.99,meteohub,2013-10-04 12:52:00,
2013-10-04 08:57:00,66.2,62.8,29.84,North,-999,-999.0,-999.0,89,-99.99,,,-99.99,meteohub,2013-10-04 12:57:00,
2013-10-04 09:02:00,66.6,63.1,29.84,North,-999,-999.0,-999.0,89,-99.99,,,-99.99,meteohub,2013-10-04 13:02:00,
2013-10-04 09:07:00,66.7,63.3,29.84,North,-999,-999.0,-999.0,89,-99.99,,,-99.99,meteohub,2013-10-04 13:07:00,
2013-10-04 09:12:00,67.3,63.9,29.84,North,-999,-999.0,-999.0,89,-99.99,,,-99.99,meteohub,2013-10-04 13:12:00,
2013-10-04 09:17:00,67.8,64.4,29.84,North,-999,-999.0,-999.0,89,-99.99,,,-99.99,meteohub,2013-10-04 13:17:00,
2013-10-04 09:22:00,68.2,64.4,29.84,North,-999,-999.0,-999.0,88,-99.99,,,-99.99,meteohub,2013-10-04 13:22:00,
2013-10-04 09:27:00,68.7,64.8,29.84,North,-999,-999.0,-999.0,87,-99.99,,,-99.99,meteohub,2013-10-04 13:27:00,
2013-10-04 09:32:00,69.1,64.8,29.84,North,-999,-999.0,-999.0,86,-99.99,,,-99.99,meteohub,2013-10-04 13:32:00,
2013-10-04 09:37:00,69.3,64.6,29.84,North,-999,-999.0,-999.0,85,-99.99,,,-99.99,meteohub,2013-10-04 13:37:00,
2013-10-04 09:42:00,69.4,64.4,29.84,North,-999,-999.0,-999.0,84,-99.99,,,-99.99,meteohub,2013-10-04 13:42:00,
2013-10-04 09:47:00,69.6,64.6,29.84,North,-999,-999.0,-999.0,84,-99.99,,,-99.99,meteohub,2013-10-04 13:47:00,
2013-10-04 09:52:00,70.2,64.4,29.84,North,-999,-999.0,-999.0,82,-99.99,,,-99.99,meteohub,2013-10-04 13:52:00,
2013-10-04 09:57:00,70.5,64.0,29.84,North,-999,-999.0,-999.0,80,-99.99,,,-99.99,meteohub,2013-10-04 13:57:00,
2013-10-04 10:02:00,70.7,64.2,29.84,North,-999,-999.0,-999.0,80,-99.99,,,-99.99,meteohub,2013-10-04 14:02:00,
2013-10-04 10:07:00,71.1,64.2,29.84,North,-999,-999.0,-999.0,79,-99.99,,,-99.99,meteohub,2013-10-04 14:07:00,
2013-10-04 10:12:00,71.2,64.4,29.84,North,-999,-999.0,-999.0,79,-99.99,,,-99.99,meteohub,2013-10-04 14:12:00,
2013-10-04 10:17:00,71.4,64.6,29.84,North,-999,-999.0,-999.0,79,-99.99,,,-99.99,meteohub,2013-10-04 14:17:00,
2013-10-04 10:22:00,71.8,64.2,29.84,North,-999,-999.0,-999.0,77,-99.99,,,-99.99,meteohub,2013-10-04 14:22:00,
2013-10-04 10:27:00,72.3,64.4,29.84,North,-999,-999.0,-999.0,76,-99.99,,,-99.99,meteohub,2013-10-04 14:27:00,
2013-10-04 10:32:00,72.3,64.4,29.84,North,-999,-999.0,-999.0,76,-99.99,,,-99.99,meteohub,2013-10-04 14:32:00,
2013-10-04 10:37:00,72.7,64.2,29.84,North,-999,-999.0,-999.0,75,-99.99,,,-99.99,meteohub,2013-10-04 14:37:00,
2013-10-04 10:42:00,73.2,64.4,29.84,North,-999,-999.0,-999.0,74,-99.99,,,-99.99,meteohub,2013-10-04 14:42:00,
2013-10-04 10:47:00,73.8,63.7,29.84,North,-999,-999.0,-999.0,71,-99.99,,,-99.99,meteohub,2013-10-04 14:47:00,
2013-10-04 10:52:00,74.1,64.0,29.84,North,-999,-999.0,-999.0,71,-99.99,,,-99.99,meteohub,2013-10-04 14:52:00,
2013-10-04 10:57:00,74.5,64.0,29.84,North,-999,-999.0,-999.0,70,-99.99,,,-99.99,meteohub,2013-10-04 14:57:00,
2013-10-04 11:02:00,74.5,64.0,29.84,North,-999,-999.0,-999.0,70,-99.99,,,-99.99,meteohub,2013-10-04 15:02:00,
2013-10-04 11:07:00,74.7,64.2,29.84,North,-999,-999.0,-999.0,70,-99.99,,,-99.99,meteohub,2013-10-04 15:07:00,
2013-10-04 11:12:00,75.0,64.2,29.84,North,-999,-999.0,-999.0,69,-99.99,,,-99.99,meteohub,2013-10-04 15:12:00,
2013-10-04 11:17:00,75.6,64.2,29.84,North,-999,-999.0,-999.0,68,-99.99,,,-99.99,meteohub,2013-10-04 15:17:00,
2013-10-04 11:19:00,75.7,64.4,29.84,North,-999,-999.0,-999.0,68,-99.99,,,-99.99,meteohub,2013-10-04 15:19:00,
2013-10-04 11:24:00,76.1,63.9,29.84,North,-999,-999.0,-999.0,66,-99.99,,,-99.99,meteohub,2013-10-04 15:24:00,
2013-10-04 11:29:00,76.5,63.3,29.84,North,-999,-999.0,-999.0,64,-99.99,,,-99.99,meteohub,2013-10-04 15:29:00,
2013-10-04 11:34:00,76.8,64.2,29.84,North,-999,-999.0,-999.0,65,-99.99,,,-99.99,meteohub,2013-10-04 15:34:00,
2013-10-04 11:40:00,77.2,64.0,29.84,North,-999,-999.0,-999.0,64,-99.99,,,-99.99,meteohub,2013-10-04 15:40:00,
2013-10-04 11:45:00,77.4,64.8,29.84,North,-999,-999.0,-999.0,65,-99.99,,,-99.99,meteohub,2013-10-04 15:45:00,
2013-10-04 11:50:00,77.9,64.8,29.84,North,-999,-999.0,-999.0,64,-99.99,,,-99.99,meteohub,2013-10-04 15:50:00,
2013-10-04 11:55:00,78.4,63.9,29.84,North,-999,-999.0,-999.0,61,-99.99,,,-99.99,meteohub,2013-10-04 15:55:00,
2013-10-04 12:00:00,78.8,63.7,29.84,North,-999,-999.0,-999.0,60,-99.99,,,-99.99,meteohub,2013-10-04 16:00:00,
2013-10-04 12:05:00,79.3,62.2,29.84,North,-999,-999.0,-999.0,56,-99.99,,,-99.99,meteohub,2013-10-04 16:05:00,
2013-10-04 12:10:00,79.9,63.3,29.84,North,-999,-999.0,-999.0,57,-99.99,,,-99.99,meteohub,2013-10-04 16:10:00,
2013-10-04 12:16:00,80.6,60.8,29.84,North,-999,-999.0,-999.0,51,-99.99,,,-99.99,meteohub,2013-10-04 16:16:00,
2013-10-04 12:21:00,81.1,63.0,29.84,North,-999,-999.0,-999.0,54,-99.99,,,-99.99,meteohub,2013-10-04 16:21:00,
2013-10-04 12:26:00,81.9,61.9,29.84,North,-999,-999.0,-999.0,51,-99.99,,,-99.99,meteohub,2013-10-04 16:26:00,
2013-10-04 12:31:00,82.4,63.0,29.84,North,-999,-999.0,-999.0,52,-99.99,,,-99.99,meteohub,2013-10-04 16:31:00,
2013-10-04 12:36:00,82.9,62.4,29.84,North,-999,-999.0,-999.0,50,-99.99,,,-99.99,meteohub,2013-10-04 16:36:00,
2013-10-04 12:41:00,82.9,59.4,29.84,North,-999,-999.0,-999.0,45,-99.99,,,-99.99,meteohub,2013-10-04 16:41:00,
2013-10-04 12:46:00,83.3,59.7,29.84,North,-999,-999.0,-999.0,45,-99.99,,,-99.99,meteohub,2013-10-04 16:46:00,
2013-10-04 12:51:00,84.2,61.7,29.84,North,-999,-999.0,-999.0,47,-99.99,,,-99.99,meteohub,2013-10-04 16:51:00,
2013-10-04 12:57:00,84.2,57.9,29.84,North,-999,-999.0,-999.0,41,-99.99,,,-99.99,meteohub,2013-10-04 16:57:00,
2013-10-04 13:02:00,84.2,57.2,29.84,North,-999,-999.0,-999.0,40,-99.99,,,-99.99,meteohub,2013-10-04 17:02:00,
2013-10-04 13:07:00,84.7,58.5,29.84,North,-999,-999.0,-999.0,41,-99.99,,,-99.99,meteohub,2013-10-04 17:07:00,
2013-10-04 13:12:00,85.3,58.3,29.84,North,-999,-999.0,-999.0,40,-99.99,,,-99.99,meteohub,2013-10-04 17:12:00,
2013-10-04 13:17:00,85.3,59.5,29.84,North,-999,-999.0,-999.0,42,-99.99,,,-99.99,meteohub,2013-10-04 17:17:00,
2013-10-04 13:22:00,84.9,58.6,29.81,North,-999,-999.0,-999.0,41,-99.99,,,-99.99,meteohub,2013-10-04 17:22:00,
2013-10-04 13:27:00,83.3,57.2,29.81,North,-999,-999.0,-999.0,41,-99.99,,,-99.99,meteohub,2013-10-04 17:27:00,
2013-10-04 13:32:00,84.2,57.9,29.81,North,-999,-999.0,-999.0,41,-99.99,,,-99.99,meteohub,2013-10-04 17:32:00,
2013-10-04 13:37:00,85.1,58.8,29.81,North,-999,-999.0,-999.0,41,-99.99,,,-99.99,meteohub,2013-10-04 17:37:00,
2013-10-04 14:02:00,85.6,58.5,29.81,North,-999,-999.0,-999.0,40,-99.99,,,-99.99,meteohub,2013-10-04 18:02:00,
2013-10-04 14:07:00,86.2,59.0,29.81,North,-999,-999.0,-999.0,40,-99.99,,,-99.99,meteohub,2013-10-04 18:07:00,
2013-10-04 14:12:00,86.5,60.1,29.81,North,-999,-999.0,-999.0,41,-99.99,,,-99.99,meteohub,2013-10-04 18:12:00,
2013-10-04 14:17:00,86.5,60.1,29.81,North,-999,-999.0,-999.0,41,-99.99,,,-99.99,meteohub,2013-10-04 18:17:00,
2013-10-04 14:22:00,86.2,59.7,29.81,North,-999,-999.0,-999.0,41,-99.99,,,-99.99,meteohub,2013-10-04 18:22:00,
2013-10-04 14:27:00,86.9,60.4,29.81,North,-999,-999.0,-999.0,41,-99.99,,,-99.99,meteohub,2013-10-04 18:27:00,
2013-10-04 14:32:00,85.6,59.2,29.81,North,-999,-999.0,-999.0,41,-99.99,,,-99.99,meteohub,2013-10-04 18:32:00,
2013-10-04 14:37:00,84.2,57.9,29.81,North,-999,-999.0,-999.0,41,-99.99,,,-99.99,meteohub,2013-10-04 18:37:00,
2013-10-04 14:42:00,85.1,57.4,29.81,North,-999,-999.0,-999.0,39,-99.99,,,-99.99,meteohub,2013-10-04 18:42:00,
2013-10-04 14:47:00,85.6,59.2,29.81,North,-999,-999.0,-999.0,41,-99.99,,,-99.99,meteohub,2013-10-04 18:47:00,
2013-10-04 14:52:00,84.9,58.6,29.81,North,-999,-999.0,-999.0,41,-99.99,,,-99.99,meteohub,2013-10-04 18:52:00,
2013-10-04 14:57:00,84.2,57.2,29.81,North,-999,-999.0,-999.0,40,-99.99,,,-99.99,meteohub,2013-10-04 18:57:00,
2013-10-04 15:02:00,85.1,58.8,29.81,North,-999,-999.0,-999.0,41,-99.99,,,-99.99,meteohub,2013-10-04 19:02:00,
2013-10-04 15:07:00,85.5,59.0,29.81,North,-999,-999.0,-999.0,41,-99.99,,,-99.99,meteohub,2013-10-04 19:07:00,
2013-10-04 15:13:00,85.5,59.0,29.81,North,-999,-999.0,-999.0,41,-99.99,,,-99.99,meteohub,2013-10-04 19:13:00,
2013-10-04 15:18:00,85.1,58.1,29.81,North,-999,-999.0,-999.0,40,-99.99,,,-99.99,meteohub,2013-10-04 19:18:00,
2013-10-04 15:23:00,85.3,57.6,29.81,North,-999,-999.0,-999.0,39,-99.99,,,-99.99,meteohub,2013-10-04 19:23:00,
2013-10-04 15:28:00,85.3,59.0,29.81,North,-999,-999.0,-999.0,41,-99.99,,,-99.99,meteohub,2013-10-04 19:28:00,
2013-10-04 15:33:00,84.4,57.4,29.81,North,-999,-999.0,-999.0,40,-99.99,,,-99.99,meteohub,2013-10-04 19:33:00,
2013-10-04 15:38:00,84.7,57.7,29.81,North,-999,-999.0,-999.0,40,-99.99,,,-99.99,meteohub,2013-10-04 19:38:00,
2013-10-04 15:44:00,84.7,58.5,29.81,North,-999,-999.0,-999.0,41,-99.99,,,-99.99,meteohub,2013-10-04 19:44:00,
2013-10-04 15:49:00,84.7,58.5,29.81,North,-999,-999.0,-999.0,41,-99.99,,,-99.99,meteohub,2013-10-04 19:49:00,
2013-10-04 15:54:00,84.2,57.9,29.81,North,-999,-999.0,-999.0,41,-99.99,,,-99.99,meteohub,2013-10-04 19:54:00,
2013-10-04 15:59:00,84.0,57.0,29.81,North,-999,-999.0,-999.0,40,-99.99,,,-99.99,meteohub,2013-10-04 19:59:00,
2013-10-04 16:04:00,83.8,57.6,29.81,North,-999,-999.0,-999.0,41,-99.99,,,-99.99,meteohub,2013-10-04 20:04:00,
2013-10-04 16:09:00,84.0,58.5,29.81,North,-999,-999.0,-999.0,42,-99.99,,,-99.99,meteohub,2013-10-04 20:09:00,
2013-10-04 16:15:00,83.7,57.4,29.81,North,-999,-999.0,-999.0,41,-99.99,,,-99.99,meteohub,2013-10-04 20:15:00,
2013-10-04 16:20:00,83.8,57.6,29.81,North,-999,-999.0,-999.0,41,-99.99,,,-99.99,meteohub,2013-10-04 20:20:00,
2013-10-04 16:25:00,83.5,57.4,29.81,North,-999,-999.0,-999.0,41,-99.99,,,-99.99,meteohub,2013-10-04 20:25:00,
2013-10-04 16:30:00,83.5,57.9,29.81,North,-999,-999.0,-999.0,42,-99.99,,,-99.99,meteohub,2013-10-04 20:30:00,
2013-10-04 16:35:00,83.5,57.4,29.81,North,-999,-999.0,-999.0,41,-99.99,,,-99.99,meteohub,2013-10-04 20:35:00,
2013-10-04 16:40:00,83.1,57.0,29.81,North,-999,-999.0,-999.0,41,-99.99,,,-99.99,meteohub,2013-10-04 20:40:00,
2013-10-04 16:46:00,83.3,57.2,29.81,North,-999,-999.0,-999.0,41,-99.99,,,-99.99,meteohub,2013-10-04 20:46:00,
2013-10-04 16:51:00,83.7,57.4,29.81,North,-999,-999.0,-999.0,41,-99.99,,,-99.99,meteohub,2013-10-04 20:51:00,
2013-10-04 16:56:00,83.7,57.4,29.81,North,-999,-999.0,-999.0,41,-99.99,,,-99.99,meteohub,2013-10-04 20:56:00,
2013-10-04 17:01:00,83.7,57.4,29.81,North,-999,-999.0,-999.0,41,-99.99,,,-99.99,meteohub,2013-10-04 21:01:00,
2013-10-04 17:06:00,83.5,57.4,29.81,North,-999,-999.0,-999.0,41,-99.99,,,-99.99,meteohub,2013-10-04 21:06:00,
2013-10-04 17:12:00,82.9,57.6,29.81,North,-999,-999.0,-999.0,42,-99.99,,,-99.99,meteohub,2013-10-04 21:12:00,
2013-10-04 17:17:00,82.9,56.8,29.81,North,-999,-999.0,-999.0,41,-99.99,,,-99.99,meteohub,2013-10-04 21:17:00,
2013-10-04 17:22:00,83.3,56.5,29.81,North,-999,-999.0,-999.0,40,-99.99,,,-99.99,meteohub,2013-10-04 21:22:00,
2013-10-04 17:27:00,83.1,57.0,29.81,North,-999,-999.0,-999.0,41,-99.99,,,-99.99,meteohub,2013-10-04 21:27:00,
2013-10-04 17:32:00,82.6,56.5,29.81,North,-999,-999.0,-999.0,41,-99.99,,,-99.99,meteohub,2013-10-04 21:32:00,
2013-10-04 17:37:00,82.6,56.5,29.81,North,-999,-999.0,-999.0,41,-99.99,,,-99.99,meteohub,2013-10-04 21:37:00,
2013-10-04 17:42:00,82.4,56.3,29.81,North,-999,-999.0,-999.0,41,-99.99,,,-99.99,meteohub,2013-10-04 21:42:00,
2013-10-04 17:47:00,82.4,56.3,29.81,North,-999,-999.0,-999.0,41,-99.99,,,-99.99,meteohub,2013-10-04 21:47:00,
2013-10-04 17:52:00,81.9,57.2,29.81,North,-999,-999.0,-999.0,43,-99.99,,,-99.99,meteohub,2013-10-04 21:52:00,
2013-10-04 17:57:00,81.7,57.0,29.81,North,-999,-999.0,-999.0,43,-99.99,,,-99.99,meteohub,2013-10-04 21:57:00,
2013-10-04 18:02:00,81.5,56.8,29.81,North,-999,-999.0,-999.0,43,-99.99,,,-99.99,meteohub,2013-10-04 22:02:00,
2013-10-04 18:07:00,81.3,56.7,29.78,North,-999,-999.0,-999.0,43,-99.99,,,-99.99,meteohub,2013-10-04 22:07:00,
2013-10-04 18:12:00,81.1,56.5,29.78,North,-999,-999.0,-999.0,43,-99.99,,,-99.99,meteohub,2013-10-04 22:12:00,
2013-10-04 18:17:00,80.8,56.8,29.78,North,-999,-999.0,-999.0,44,-99.99,,,-99.99,meteohub,2013-10-04 22:17:00,
2013-10-04 18:22:00,80.4,56.5,29.81,North,-999,-999.0,-999.0,44,-99.99,,,-99.99,meteohub,2013-10-04 22:22:00,
2013-10-04 18:27:00,80.2,57.0,29.81,North,-999,-999.0,-999.0,45,-99.99,,,-99.99,meteohub,2013-10-04 22:27:00,
2013-10-04 18:32:00,79.7,57.0,29.81,North,-999,-999.0,-999.0,46,-99.99,,,-99.99,meteohub,2013-10-04 22:32:00,
2013-10-04 18:37:00,79.2,57.2,29.81,North,-999,-999.0,-999.0,47,-99.99,,,-99.99,meteohub,2013-10-04 22:37:00,
2013-10-04 18:42:00,78.4,57.2,29.81,North,-999,-999.0,-999.0,48,-99.99,,,-99.99,meteohub,2013-10-04 22:42:00,
2013-10-04 18:48:00,78.1,56.8,29.81,North,-999,-999.0,-999.0,48,-99.99,,,-99.99,meteohub,2013-10-04 22:48:00,
2013-10-04 18:53:00,77.7,57.0,29.81,North,-999,-999.0,-999.0,49,-99.99,,,-99.99,meteohub,2013-10-04 22:53:00,
2013-10-04 18:58:00,77.2,57.0,29.81,North,-999,-999.0,-999.0,50,-99.99,,,-99.99,meteohub,2013-10-04 22:58:00,
2013-10-04 19:03:00,76.8,57.4,29.81,North,-999,-999.0,-999.0,51,-99.99,,,-99.99,meteohub,2013-10-04 23:03:00,
2013-10-04 19:08:00,76.5,57.6,29.81,North,-999,-999.0,-999.0,52,-99.99,,,-99.99,meteohub,2013-10-04 23:08:00,
2013-10-04 19:13:00,76.1,57.7,29.81,North,-999,-999.0,-999.0,53,-99.99,,,-99.99,meteohub,2013-10-04 23:13:00,
2013-10-04 19:19:00,75.7,57.4,29.81,North,-999,-999.0,-999.0,53,-99.99,,,-99.99,meteohub,2013-10-04 23:19:00,
2013-10-04 19:24:00,75.4,57.6,29.81,North,-999,-999.0,-999.0,54,-99.99,,,-99.99,meteohub,2013-10-04 23:24:00,
2013-10-04 19:29:00,75.0,57.7,29.81,North,-999,-999.0,-999.0,55,-99.99,,,-99.99,meteohub,2013-10-04 23:29:00,
2013-10-04 19:34:00,74.7,57.9,29.81,North,-999,-999.0,-999.0,56,-99.99,,,-99.99,meteohub,2013-10-04 23:34:00,
2013-10-04 19:39:00,74.3,58.1,29.81,North,-999,-999.0,-999.0,57,-99.99,,,-99.99,meteohub,2013-10-04 23:39:00,
2013-10-04 19:45:00,74.1,58.5,29.81,North,-999,-999.0,-999.0,58,-99.99,,,-99.99,meteohub,2013-10-04 23:45:00,
2013-10-04 19:50:00,73.8,58.1,29.81,North,-999,-999.0,-999.0,58,-99.99,,,-99.99,meteohub,2013-10-04 23:50:00,
2013-10-04 19:55:00,73.6,58.5,29.81,North,-999,-999.0,-999.0,59,-99.99,,,-99.99,meteohub,2013-10-04 23:55:00,
2013-10-04 20:00:00,73.4,58.3,29.81,North,-999,-999.0,-999.0,59,-99.99,,,-99.99,meteohub,2013-10-05 00:00:00,
2013-10-04 20:05:00,73.0,58.3,29.81,North,-999,-999.0,-999.0,60,-99.99,,,-99.99,meteohub,2013-10-05 00:05:00,
2013-10-04 20:11:00,72.7,58.5,29.81,North,-999,-999.0,-999.0,61,-99.99,,,-99.99,meteohub,2013-10-05 00:11:00,
2013-10-04 20:16:00,72.5,58.8,29.81,North,-999,-999.0,-999.0,62,-99.99,,,-99.99,meteohub,2013-10-05 00:16:00,
2013-10-04 20:21:00,72.3,59.0,29.81,North,-999,-999.0,-999.0,63,-99.99,,,-99.99,meteohub,2013-10-05 00:21:00,
2013-10-04 20:26:00,72.1,58.8,29.81,North,-999,-999.0,-999.0,63,-99.99,,,-99.99,meteohub,2013-10-05 00:26:00,
2013-10-04 20:31:00,72.0,59.2,29.81,North,-999,-999.0,-999.0,64,-99.99,,,-99.99,meteohub,2013-10-05 00:31:00,
2013-10-04 20:37:00,71.8,59.0,29.81,North,-999,-999.0,-999.0,64,-99.99,,,-99.99,meteohub,2013-10-05 00:37:00,
2013-10-04 20:42:00,71.6,59.2,29.81,North,-999,-999.0,-999.0,65,-99.99,,,-99.99,meteohub,2013-10-05 00:42:00,
2013-10-04 20:47:00,71.4,59.5,29.81,North,-999,-999.0,-999.0,66,-99.99,,,-99.99,meteohub,2013-10-05 00:47:00,
2013-10-04 20:52:00,71.2,59.4,29.81,North,-999,-999.0,-999.0,66,-99.99,,,-99.99,meteohub,2013-10-05 00:52:00,
2013-10-04 20:57:00,71.1,59.5,29.81,North,-999,-999.0,-999.0,67,-99.99,,,-99.99,meteohub,2013-10-05 00:57:00,
2013-10-04 21:03:00,70.7,59.2,29.81,North,-999,-999.0,-999.0,67,-99.99,,,-99.99,meteohub,2013-10-05 01:03:00,
2013-10-04 21:08:00,70.7,59.5,29.81,North,-999,-999.0,-999.0,68,-99.99,,,-99.99,meteohub,2013-10-05 01:08:00,
2013-10-04 21:13:00,70.3,59.4,29.81,North,-999,-999.0,-999.0,68,-99.99,,,-99.99,meteohub,2013-10-05 01:13:00,
2013-10-04 21:18:00,70.3,59.7,29.84,North,-999,-999.0,-999.0,69,-99.99,,,-99.99,meteohub,2013-10-05 01:18:00,
2013-10-04 21:24:00,70.2,59.5,29.84,North,-999,-999.0,-999.0,69,-99.99,,,-99.99,meteohub,2013-10-05 01:24:00,
2013-10-04 21:29:00,70.0,59.4,29.84,North,-999,-999.0,-999.0,69,-99.99,,,-99.99,meteohub,2013-10-05 01:29:00,
2013-10-04 21:34:00,70.0,59.7,29.84,North,-999,-999.0,-999.0,70,-99.99,,,-99.99,meteohub,2013-10-05 01:34:00,
2013-10-04 21:39:00,69.8,59.5,29.84,North,-999,-999.0,-999.0,70,-99.99,,,-99.99,meteohub,2013-10-05 01:39:00,
2013-10-04 21:45:00,69.6,59.7,29.84,North,-999,-999.0,-999.0,71,-99.99,,,-99.99,meteohub,2013-10-05 01:45:00,
2013-10-04 21:50:00,69.6,59.7,29.84,North,-999,-999.0,-999.0,71,-99.99,,,-99.99,meteohub,2013-10-05 01:50:00,
2013-10-04 21:55:00,69.4,59.7,29.84,North,-999,-999.0,-999.0,71,-99.99,,,-99.99,meteohub,2013-10-05 01:55:00,
2013-10-04 22:00:00,69.4,59.7,29.84,North,-999,-999.0,-999.0,71,-99.99,,,-99.99,meteohub,2013-10-05 02:00:00,
2013-10-04 22:05:00,69.3,59.5,29.84,North,-999,-999.0,-999.0,71,-99.99,,,-99.99,meteohub,2013-10-05 02:05:00,
2013-10-04 22:11:00,69.3,59.9,29.84,North,-999,-999.0,-999.0,72,-99.99,,,-99.99,meteohub,2013-10-05 02:11:00,
2013-10-04 22:16:00,69.3,59.9,29.84,North,-999,-999.0,-999.0,72,-99.99,,,-99.99,meteohub,2013-10-05 02:16:00,
2013-10-04 22:21:00,69.3,59.9,29.84,North,-999,-999.0,-999.0,72,-99.99,,,-99.99,meteohub,2013-10-05 02:21:00,
2013-10-04 22:26:00,69.1,59.7,29.84,North,-999,-999.0,-999.0,72,-99.99,,,-99.99,meteohub,2013-10-05 02:26:00,
2013-10-04 22:32:00,69.1,60.1,29.84,North,-999,-999.0,-999.0,73,-99.99,,,-99.99,meteohub,2013-10-05 02:32:00,
2013-10-04 22:37:00,68.7,59.7,29.84,North,-999,-999.0,-999.0,73,-99.99,,,-99.99,meteohub,2013-10-05 02:37:00,
2013-10-04 22:42:00,68.7,60.1,29.84,North,-999,-999.0,-999.0,74,-99.99,,,-99.99,meteohub,2013-10-05 02:42:00,
2013-10-04 22:47:00,68.5,59.9,29.84,North,-999,-999.0,-999.0,74,-99.99,,,-99.99,meteohub,2013-10-05 02:47:00,
2013-10-04 22:52:00,68.5,59.9,29.84,North,-999,-999.0,-999.0,74,-99.99,,,-99.99,meteohub,2013-10-05 02:52:00,
2013-10-04 22:57:00,68.4,60.1,29.84,North,-999,-999.0,-999.0,75,-99.99,,,-99.99,meteohub,2013-10-05 02:57:00,
2013-10-04 23:02:00,68.4,60.1,29.84,North,-999,-999.0,-999.0,75,-99.99,,,-99.99,meteohub,2013-10-05 03:02:00,
2013-10-04 23:07:00,68.2,59.9,29.84,North,-999,-999.0,-999.0,75,-99.99,,,-99.99,meteohub,2013-10-05 03:07:00,
2013-10-04 23:13:00,68.0,60.1,29.84,North,-999,-999.0,-999.0,76,-99.99,,,-99.99,meteohub,2013-10-05 03:13:00,
2013-10-04 23:18:00,68.0,60.1,29.84,North,-999,-999.0,-999.0,76,-99.99,,,-99.99,meteohub,2013-10-05 03:18:00,
2013-10-04 23:23:00,67.8,60.3,29.84,North,-999,-999.0,-999.0,77,-99.99,,,-99.99,meteohub,2013-10-05 03:23:00,
2013-10-04 23:28:00,67.8,60.3,29.84,North,-999,-999.0,-999.0,77,-99.99,,,-99.99,meteohub,2013-10-05 03:28:00,
2013-10-04 23:33:00,67.8,60.3,29.84,North,-999,-999.0,-999.0,77,-99.99,,,-99.99,meteohub,2013-10-05 03:33:00,
2013-10-04 23:38:00,67.6,60.6,29.84,North,-999,-999.0,-999.0,78,-99.99,,,-99.99,meteohub,2013-10-05 03:38:00,
2013-10-04 23:43:00,67.5,60.4,29.84,North,-999,-999.0,-999.0,78,-99.99,,,-99.99,meteohub,2013-10-05 03:43:00,
2013-10-04 23:49:00,67.5,60.8,29.84,North,-999,-999.0,-999.0,79,-99.99,,,-99.99,meteohub,2013-10-05 03:49:00,
2013-10-04 23:54:00,67.3,60.6,29.84,North,-999,-999.0,-999.0,79,-99.99,,,-99.99,meteohub,2013-10-05 03:54:00,
2013-10-04 23:59:00,67.3,60.6,29.84,North,-999,-999.0,-999.0,79,-99.99,,,-99.99,meteohub,2013-10-05 03:59:00,